Location: *
(28.2408°N, 53.4600°E)
Time: 20:54:57
(UTC+00:00)

Cosmos 1892 Rocket - Pass Details

Date: 22 September 2019
Orbit: 605 x 634 km, 82.5° (Epoch: 21 October)

Event Time Altitude Azimuth Distance (km) Brightness Sun altitude
Rises 15:52:45 0° 358° (N) 2,904 7.2 -20.4°
Reaches altitude 10° 15:55:01 10° 2° (N) 1,990 6.3 -20.9°
Enters shadow 15:59:23 63° 83° (E) 687 3.4 -21.8°
